W8AN Weather Reports


Display with metric or nautical units.
time (UTC)temp
F
wind
direction
speed
MPH
gust
MPH
rain 1hr
in
rain 24hr
in
rain mn
in
humidity
%
barometer
mb
20260502221545 48 289 6.0 7.0 0.00 0.00 0.00 44 4271.6
20260502221042 48 284 7.0 7.0 0.00 0.00 0.00 47 4271.7
20260502220538 48 332 8.0 9.0 0.00 0.00 0.00 48 4271.6
20260502220035 48 323 3.0 5.0 0.00 0.00 0.00 45 4271.6
20260502215532 48 331 6.0 8.0 0.00 0.00 0.00 46 4271.7
20260502215029 48 347 8.0 9.0 0.00 0.00 0.00 47 4271.8
20260502214526 48 300 6.0 8.0 0.00 0.00 0.00 46 4271.5
20260502214023 48 326 5.0 7.0 0.00 0.00 0.00 46 4271.6
20260502213520 48 337 6.0 7.0 0.00 0.00 0.00 46 4271.7
20260502213018 48 333 8.0 9.0 0.00 0.00 0.00 47 4271.5
20260502212517 48 282 8.0 10.0 0.00 0.00 0.00 46 4271.8
20260502212014 48 316 6.0 8.0 0.00 0.00 0.00 46 4271.5
20260502211509 48 305 3.0 5.0 0.00 0.00 0.00 45 4271.6
20260502211007 48 319 5.0 6.0 0.00 0.00 0.00 49 4271.6
20260502210503 48 330 7.0 8.0 0.00 0.00 0.00 50 4271.6
20260502210001 47 329 5.0 6.0 0.00 0.00 0.00 42 4271.4
20260502205456 47 335 7.0 7.0 0.00 0.00 0.00 47 4271.3
20260502204954 47 337 7.0 10.0 0.00 0.00 0.00 46 4271.5
20260502204451 48 337 12.0 15.0 0.00 0.00 0.00 47 4271.7
20260502203949 48 328 11.0 13.0 0.00 0.00 0.00 45 4271.6
20260502203446 48 329 10.0 13.0 0.00 0.00 0.00 46 4271.5
20260502202942 47 301 4.0 6.0 0.00 0.00 0.00 45 4271.5
20260502202439 48 305 3.0 3.0 0.00 0.00 0.00 47 4271.6
20260502201937 48 304 6.0 7.0 0.00 0.00 0.00 48 4271.6
20260502201432 47 324 7.0 8.0 0.00 0.00 0.00 46 4271.7
20260502200929 47 336 8.0 11.0 0.00 0.00 0.00 52 4271.8
20260502200425 47 299 5.0 6.0 0.00 0.00 0.00 48 4271.9
20260502195923 47 331 9.0 11.0 0.00 0.00 0.00 49 4271.8
20260502195420 47 297 3.0 5.0 0.00 0.00 0.00 45 4271.9
20260502194916 47 334 5.0 7.0 0.00 0.00 0.00 45 4272.0
20260502194414 48 324 9.0 9.0 0.00 0.00 0.00 45 4272.2
20260502193909 47 279 5.0 7.0 0.00 0.00 0.00 46 4272.0
20260502193407 47 324 5.0 7.0 0.00 0.00 0.00 50 4272.1
20260502192901 47 288 5.0 7.0 0.00 0.00 0.00 49 4272.2
20260502192359 47 302 6.0 7.0 0.00 0.00 0.00 50 4272.0
20260502191856 46 308 2.0 2.0 0.00 0.00 0.00 47 4272.2
20260502191354 47 322 7.0 8.0 0.00 0.00 0.00 48 4272.2
20260502190851 47 315 7.0 10.0 0.00 0.00 0.00 52 4272.1
20260502190348 47 296 3.0 5.0 0.00 0.00 0.00 48 4272.2
20260502185844 47 323 8.0 9.0 0.00 0.00 0.00 49 4272.4
20260502185340 47 314 4.0 5.0 0.00 0.00 0.00 49 4272.5
20260502184837 48 324 8.0 9.0 0.00 0.00 0.00 45 4272.3
20260502184332 46 335 12.0 13.0 0.00 0.00 0.00 47 4272.5
20260502183829 46 329 8.0 8.0 0.00 0.00 0.00 47 4272.4
20260502183325 46 264 5.0 6.0 0.00 0.00 0.00 51 4272.4
20260502182820 46 296 6.0 7.0 0.00 0.00 0.00 53 4272.6
20260502182316 47 276 4.0 5.0 0.00 0.00 0.00 46 4272.4
20260502181813 47 272 2.0 5.0 0.00 0.00 0.00 48 4272.4
20260502181312 47 274 7.0 9.0 0.00 0.00 0.00 46 4272.6
20260502180809 47 299 6.0 7.0 0.00 0.00 0.00 47 4272.7
20260502180306 47 281 8.0 9.0 0.00 0.00 0.00 47 4272.8
20260502170226 46 305 3.0 5.0 0.00 0.00 0.00 48 4273.0
20260502164213 45 307 4.0 5.0 0.00 0.00 0.00 57 4273.2
20260502163708 45 339 9.0 11.0 0.00 0.00 0.00 54 4273.1
20260502163205 45 341 8.0 8.0 0.00 0.00 0.00 55 4273.2
20260502162702 44 334 6.0 7.0 0.00 0.00 0.00 50 4273.4
20260502162159 45 332 7.0 8.0 0.00 0.00 0.00 52 4273.3
20260502161656 44 327 9.0 10.0 0.00 0.00 0.00 54 4273.5
20260502161152 44 323 7.0 9.0 0.00 0.00 0.00 55 4273.4
20260502160651 44 323 7.0 8.0 0.00 0.00 0.00 56 4273.4
20260502160150 44 305 5.0 5.0 0.00 0.00 0.00 56 4273.5
20260502152109 44 327 9.0 10.0 0.00 0.00 0.00 55 4273.2
20260502151606 44 338 11.0 13.0 0.00 0.00 0.00 58 4273.1
20260502151104 44 326 8.0 9.0 0.00 0.00 0.00 56 4273.1
20260502150601 45 328 6.0 8.0 0.00 0.00 0.00 61 4273.0
20260502130446 41 329 14.0 17.0 0.00 0.00 0.00 76 4272.6
20260502123428 40 329 9.0 10.0 0.00 0.00 0.00 78 4272.4
20260502122926 39 332 7.0 8.0 0.00 0.00 0.00 79 4272.7
20260502122422 39 320 7.0 9.0 0.00 0.00 0.00 79 4272.6
20260502121920 39 311 6.0 7.0 0.00 0.00 0.00 79 4272.6
20260502121417 39 294 5.0 6.0 0.00 0.00 0.00 79 4272.6
20260502120914 38 313 5.0 7.0 0.00 0.00 0.00 80 4272.6
20260502120410 38 327 3.0 6.0 0.00 0.00 0.00 81 4272.4
20260502115908 37 329 5.0 6.0 0.00 0.00 0.00 82 4272.6
20260502115405 36 299 5.0 8.0 0.00 0.00 0.00 82 4272.4
20260502114901 37 314 5.0 6.0 0.00 0.00 0.00 82 4272.3
20260502114358 36 315 5.0 6.0 0.00 0.00 0.00 82 4272.4
20260502113855 36 302 3.0 3.0 0.00 0.00 0.00 82 4272.3
20260502113352 36 302 0.0 0.0 0.00 0.00 0.00 82 4272.3
20260502112851 36 299 0.0 0.0 0.00 0.00 0.00 82 4272.3
20260502112348 36 302 0.0 0.0 0.00 0.00 0.00 82 4272.4
20260502111845 36 303 0.0 0.0 0.00 0.00 0.00 82 4272.2
20260502111342 36 304 0.0 0.0 0.00 0.00 0.00 82 4272.2
20260502110840 36 312 0.0 0.0 0.00 0.00 0.00 82 4272.2
20260502110338 36 308 1.0 1.0 0.00 0.00 0.00 82 4272.2
20260502105835 36 323 3.0 3.0 0.00 0.00 0.00 82 4272.2
20260502105332 37 322 3.0 3.0 0.00 0.00 0.00 81 4272.2
20260502104830 36 298 5.0 6.0 0.00 0.00 0.00 81 4272.2
20260502104327 36 272 4.0 5.0 0.00 0.00 0.00 81 4272.0
20260502103824 38 265 6.0 7.0 0.00 0.00 0.00 82 4272.1
20260502103321 38 320 0.0 0.0 0.00 0.00 0.00 81 4272.1
20260502102818 38 316 0.0 0.0 0.00 0.00 0.00 81 4271.9
20260502102314 38 315 0.0 0.0 0.00 0.00 0.00 81 4271.8
20260502101813 38 315 0.0 0.0 0.00 0.00 0.00 81 4271.8
20260502101310 38 316 0.0 0.0 0.00 0.00 0.00 80 4271.8
20260502100808 38 327 3.0 3.0 0.00 0.00 0.00 80 4271.9
20260502100308 38 322 6.0 7.0 0.00 0.00 0.00 80 4271.8
20260502091241 37 314 3.0 3.0 0.00 0.00 0.00 77 4271.7
20260502090738 37 303 5.0 6.0 0.00 0.00 0.00 77 4271.7
20260502090235 37 278 5.0 6.0 0.00 0.00 0.00 77 4271.7
20260502071136 38 305 7.0 9.0 0.00 0.00 0.00 74 4271.3
20260502070634 38 281 9.0 10.0 0.00 0.00 0.00 73 4271.2
20260502070131 38 305 8.0 10.0 0.00 0.00 0.00 75 4271.2
20260502065630 38 297 7.0 8.0 0.00 0.00 0.00 76 4271.1
20260502065127 38 315 6.0 7.0 0.00 0.00 0.00 76 4271.4
20260502064626 38 314 5.0 6.0 0.00 0.00 0.00 75 4271.3
20260502064122 39 307 5.0 6.0 0.00 0.00 0.00 75 4271.6
20260502063620 39 316 8.0 9.0 0.00 0.00 0.00 73 4271.3
20260502063117 39 330 6.0 8.0 0.00 0.00 0.00 75 4271.6
20260502062614 39 323 6.0 7.0 0.00 0.00 0.00 76 4271.4
20260502062112 39 307 6.0 9.0 0.00 0.00 0.00 76 4271.6
20260502061610 39 315 7.0 9.0 0.00 0.00 0.00 76 4271.5
20260502061108 40 295 5.0 6.0 0.00 0.00 0.00 78 4271.4
20260502060607 39 280 7.0 10.0 0.00 0.00 0.00 80 4271.4
20260502060104 39 295 5.0 6.0 0.00 0.00 0.00 81 4271.6
20260502055602 40 277 5.0 7.0 0.00 0.00 0.00 81 4271.7
20260502055100 40 275 4.0 7.0 0.00 0.00 0.00 80 4271.7
20260502054559 40 271 0.0 0.0 0.00 0.00 0.00 80 4271.7
20260502054055 40 275 0.0 0.0 0.00 0.00 0.00 79 4271.7
20260502053552 40 293 8.0 8.0 0.00 0.00 0.00 80 4271.4
20260502053050 40 289 5.0 6.0 0.00 0.00 0.00 81 4271.6
20260502052549 40 275 5.0 6.0 0.00 0.00 0.00 81 4271.5
20260502052046 40 284 4.0 6.0 0.00 0.00 0.00 82 4271.7
20260502051544 40 284 0.0 0.0 0.00 0.00 0.00 81 4271.6
20260502051042 41 295 3.0 3.0 0.00 0.00 0.00 81 4271.6
20260502050537 41 275 5.0 6.0 0.00 0.00 0.00 81 4271.9
20260502050035 41 289 3.0 5.0 0.00 0.00 0.00 80 4271.6
20260502045531 41 278 3.0 5.0 0.00 0.00 0.00 80 4271.8
20260502045029 41 269 5.0 7.0 0.00 0.00 0.00 80 4271.7
20260502044525 41 249 6.0 7.0 0.00 0.00 0.00 81 4271.8
20260502044021 41 246 4.0 5.0 0.00 0.00 0.00 82 4271.8
20260502043519 41 257 0.0 0.0 0.00 0.00 0.00 82 4271.8
20260502043015 41 295 0.0 1.0 0.00 0.00 0.00 82 4271.8
20260502042510 41 295 0.0 0.0 0.00 0.00 0.00 82 4271.7
20260502042008 41 291 0.0 0.0 0.00 0.00 0.00 82 4271.7
20260502041506 41 290 0.0 0.0 0.00 0.00 0.00 82 4271.8
20260502041003 41 290 0.0 0.0 0.00 0.00 0.00 82 4271.6
20260502040459 42 291 0.0 0.0 0.00 0.00 0.00 81 4271.9
20260502035955 42 295 0.0 0.0 0.00 0.39 0.39 80 4271.7
20260502035451 42 295 0.0 0.0 0.00 0.39 0.39 79 4271.6
20260502034950 42 295 0.0 0.0 0.00 0.39 0.39 78 4271.5
20260502034448 42 295 0.0 0.0 0.00 0.39 0.39 78 4271.5
20260502033946 42 293 2.0 3.0 0.00 0.39 0.39 78 4271.5
20260502033443 43 300 2.0 2.0 0.00 0.39 0.39 78 4271.7
20260502032939 43 300 2.0 2.0 0.00 0.39 0.39 78 4271.5
20260502032436 43 312 2.0 3.0 0.00 0.39 0.39 78 4271.4
20260502031933 43 319 2.0 2.0 0.00 0.39 0.39 77 4271.3
20260502031432 44 306 4.0 5.0 0.00 0.39 0.39 77 4271.5
20260502030930 44 296 3.0 5.0 0.00 0.39 0.39 77 4271.4
20260502030428 43 287 3.0 3.0 0.00 0.39 0.39 78 4271.3
20260502025925 44 297 0.0 0.0 0.00 0.39 0.39 80 4271.2
20260502025422 44 311 0.0 0.0 0.00 0.39 0.39 79 4271.3
20260502024920 44 323 4.0 5.0 0.00 0.39 0.39 77 4271.3
20260502024418 44 324 4.0 6.0 0.00 0.39 0.39 77 4271.3
20260502023915 44 321 4.0 5.0 0.00 0.39 0.39 76 4271.1
20260502023413 44 323 5.0 6.0 0.00 0.39 0.39 76 4271.1
20260502022910 44 307 1.0 3.0 0.00 0.39 0.39 77 4270.9
20260502022406 44 301 0.0 0.0 0.00 0.39 0.39 77 4271.3
20260502021903 44 299 0.0 0.0 0.00 0.39 0.39 77 4271.1
20260502021401 44 291 0.0 0.0 0.00 0.39 0.39 78 4270.9
20260502020858 44 279 0.0 0.0 0.00 0.39 0.39 78 4271.0
20260502020356 43 307 0.0 0.0 0.00 0.39 0.39 79 4270.9
20260502015852 44 318 0.0 0.0 0.00 0.39 0.39 79 4270.8
20260502015349 44 324 1.0 2.0 0.00 0.39 0.39 78 4270.7
20260502014847 44 322 2.0 2.0 0.00 0.39 0.39 77 4270.8
20260502014344 44 325 3.0 3.0 0.00 0.39 0.39 75 4270.6
20260502013839 44 322 4.0 6.0 0.00 0.39 0.39 74 4270.4
20260502013335 44 317 3.0 3.0 0.00 0.39 0.39 76 4270.7
20260502012832 44 313 2.0 3.0 0.00 0.39 0.39 77 4270.3
20260502012330 44 301 0.0 0.0 0.00 0.39 0.39 78 4270.2
20260502011827 44 288 0.0 0.0 0.00 0.39 0.39 79 4270.3
20260502011323 44 298 0.0 0.0 0.00 0.39 0.39 79 4270.3
20260502010821 44 293 0.0 0.0 0.00 0.39 0.39 78 4270.0
20260502010317 44 293 0.0 0.0 0.00 0.39 0.39 77 4270.1
20260502005814 44 291 0.0 0.0 0.00 0.39 0.39 76 4270.1
20260502005312 45 283 1.0 2.0 0.00 0.39 0.39 76 4270.0
20260502004809 45 273 2.0 3.0 0.00 0.39 0.39 75 4270.3
20260502004305 45 253 3.0 3.0 0.00 0.39 0.39 76 4270.2
20260502003803 45 262 7.0 8.0 0.00 0.39 0.39 74 4270.3
20260502003259 45 327 8.0 10.0 0.00 0.39 0.39 74 4270.0
20260502002755 45 317 11.0 11.0 0.00 0.39 0.39 72 4269.9
20260502002253 45 327 10.0 11.0 0.00 0.39 0.39 71 4269.9
20260502001750 45 331 12.0 14.0 0.00 0.39 0.39 72 4270.1
20260502001248 46 338 12.0 16.0 0.00 0.39 0.39 75 4269.9
20260502000746 45 247 5.0 6.0 0.00 0.39 0.39 79 4269.8
20260502000244 45 252 0.0 0.0 0.00 0.39 0.39 79 4269.6
20260501235738 44 228 0.0 0.0 0.00 0.39 0.39 79 4269.5
20260501235235 44 264 0.0 0.0 0.00 0.39 0.39 80 4269.4
20260501234731 44 271 0.0 0.0 0.00 0.39 0.39 81 4269.5
20260501234228 44 272 0.0 0.0 0.00 0.39 0.39 81 4269.7
20260501233726 44 267 0.0 0.0 0.00 0.39 0.39 80 4269.5
20260501233224 44 267 0.0 0.0 0.00 0.39 0.39 80 4269.6
20260501232718 44 249 0.0 0.0 0.00 0.39 0.39 80 4269.5
20260501232216 44 256 0.0 0.0 0.00 0.39 0.39 79 4269.4
20260501231714 44 250 0.0 0.0 0.00 0.39 0.39 79 4269.6
20260501231212 44 237 3.0 3.0 0.00 0.39 0.39 78 4269.6
20260501230710 45 238 3.0 5.0 0.00 0.39 0.39 76 4269.5
20260501230208 45 255 4.0 5.0 0.00 0.39 0.39 75 4269.8
20260501225705 45 243 5.0 6.0 0.00 0.39 0.39 74 4269.6
20260501225202 46 232 4.0 6.0 0.00 0.39 0.39 77 4269.5
20260501224658 45 234 3.0 3.0 0.00 0.39 0.39 77 4269.6
20260501224156 45 242 4.0 5.0 0.00 0.39 0.39 77 4269.7
20260501223652 44 237 3.0 3.0 0.00 0.39 0.39 79 4269.6
20260501223149 44 274 2.0 5.0 0.00 0.39 0.39 80 4269.6
20260501222644 43 284 3.0 3.0 0.00 0.39 0.39 80 4269.7
20260501222142 43 278 2.0 2.0 0.00 0.39 0.39 80 4269.7